Regional Weather Roundup
Issued by NWS

Home | Current Version | Previous Version | Text Only | Print | Product List | Glossary Off
Versions: 1 2 3 4 5 6 7 8 9 10 11 12 13 14 15 16 17 18 19 20 21 22 23 24 25 26 27 28 29 30 31 32 33 34 35 36 37 38 39 40 41 42 43 44 45 46 47 48 49 50

000
ASUS45 KTFX 272104
RWRMT
MONTANA HOURLY WEATHER ROUNDUP
NATIONAL WEATHER SERVICE GREAT FALLS MT
204 PM MST THU NOV 27 2014

NOTE: "FAIR" INDICATES FEW OR NO CLOUDS BELOW 12000 FEET WITH NO
SIGNIFICANT WEATHER AND/OR OBSTRUCTIONS TO VISIBILITY.

* THESE STATIONS ARE NOT UNDER NWS QUALITY CONTROL. THEY DO NOT
   REPORT WEATHER SUCH AS PRECIPITATION OR FOG.

MTZ001>007-043-272200-
WEST OF THE DIVIDE
CITY           SKY/WX    TMP DP  RH WIND       PRES   REMARKS
KALISPELL      CLOUDY    43  36  76 SE8       29.83F
MISSOULA       CLOUDY    52  39  61 E5        29.90F
BUTTE          CLOUDY    52  30  43 CALM      30.00F
MULLAN PASS    LGT RAIN  36  34  92 SW12G22   29.89F WCI  28
* ESSEX        N/A       37  36  96 E1         N/A
* LINCOLN      N/A       44  35  71 NW3        N/A
* LOOKOUT PASS N/A       43  37  79 SW2G11     N/A
* POLSON       N/A       50  37  61 S5G23      N/A
* RONAN APT    PTCLDY    46  39  77 N/A        N/A
* SEELEY LAKE  N/A       42  37  83 NE2        N/A
* THOMP F APT  PTCLDY    43  28  56 SE7G12     N/A
* YAAK HILL    N/A       44  42  93 NW1        N/A
$$

MTZ008-052>055-272200-
SOUTHWEST MONTANA
CITY           SKY/WX    TMP DP  RH WIND       PRES   REMARKS
BOZEMAN        CLOUDY    54  28  37 NW5       29.95F
DILLON         PTSUNNY   55  28  35 SW20G28   30.01F
* W YELLOWSTON PTCLDY    42  30  63 SW6G16     N/A
* ENNIS APT    PTCLDY    55  28  35 S20        N/A
* THREE FORKS  SUNNY     48 -49   1 SW5        N/A
* BOULDER HILL N/A       49  25  39 S26G34     N/A
* MONIDA PASS  N/A       37  29  73 SE14G20    N/A   WCI  28
* RAYNOLDS PAS N/A       38  18  44 SE24G30    N/A   WCI  27
* WHITEHALL    N/A       61  29  30 SW13G25    N/A
* WISE RIVER   N/A       54  32  43 S5         N/A
$$

MTZ009>010-012-014-046-048-049-054-272200-
EAST SLOPES AND CENTRAL MONTANA
CITY           SKY/WX    TMP DP  RH WIND       PRES   REMARKS
CUT BANK       SUNNY     48  36  63 W43G58    29.65F
GREAT FALLS    SUNNY     57  34  42 SW37G47   29.73F
HELENA         PTCLDY    55  32  42 N/A       29.89F
MALMSTROM AFB  SUNNY     57  34  42 SW36G53   29.74F
* DEARBORN     N/A       59  33  38 S11G32     N/A
* EAST GLACIER N/A       37  36  96 W22G29     N/A   WCI  26
* MONARCH      N/A       48  22  36 SW24G41    N/A
* PENDROY      N/A       52  32  47 W32G42     N/A
* ROGERS PASS  N/A       45  33  63 SE20G36    N/A
* SAINT MARY   N/A       42  37  83 SW12G26    N/A
* SWEET GRASS  N/A       29  29 100 NE11       N/A   WCI  19
$$

MTZ011-013-016-021-035-040-045-047-050-051-272200-
NORTH CENTRAL MONTANA
CITY           SKY/WX    TMP DP  RH WIND       PRES   REMARKS
HAVRE          PTCLDY    54  39  57 SW17      29.69F
LEWISTOWN      SUNNY     55  36  49 W17       29.78F
* N BAR RANCH  SUNNY     55  30  39 W21G35    29.79F
* CHESTER      N/A       42  34  73 NE1        N/A
* DENTON       N/A       56  29  36 SW1        N/A
* JUDITH GAP   N/A       48  29  48 SW26G38    N/A
* LOMA         N/A       58  39  49 SW22G31    N/A
$$

MTZ017>020-022>027-061-062-272200-
NORTHEAST MONTANA
CITY           SKY/WX    TMP DP  RH WIND       PRES   REMARKS
GLASGOW        PTCLDY    34  28  79 E13       29.74F WCI  25
GLENDIVE       CLOUDY    34  27  76 S9        29.79F WCI  27
JORDAN         PTCLDY    48  36  63 W13       29.74F
SIDNEY         PTSUNNY   30  25  82 SE12      29.84F WCI  20
WOLF POINT     CLOUDY    34  28  79 E8        29.78F WCI  27
* BEAVER HILL  N/A       36  26  67 S14G19     N/A   WCI  27
* CIRCLE       N/A       39  33  79 S7         N/A   WCI  34
* LINDSAY DVD  N/A       32  27  82 SE8        N/A   WCI  25
* NAVAJO       N/A       19  16  88 SE12       N/A   WCI   6
* SACO         N/A       32  29  89 E10        N/A   WCI  24
$$

MTZ028>042-056>058-272200-
SOUTHCENTRAL AND SOUTHEAST MONTANA
CITY           SKY/WX    TMP DP  RH WIND       PRES   REMARKS
BAKER          CLOUDY    36  27  70 SE9       29.82F WCI  29
BILLINGS       PTCLDY    50  30  46 W17       29.84F
LIVINGSTON     CLOUDY    57  30  36 SW36G45   29.90F
MILES CITY     CLOUDY    39  34  82 S6        29.80F WCI  35
* LAUREL APT   PTCLDY    46  25  44 SW8        N/A
* ALZADA       N/A       30  30 100 SE4        N/A
* HYSHAM       N/A       46  30  54 W6G12      N/A
* LAME DEER    N/A       51  29  43 SW14       N/A
* REED POINT   N/A       40  32  73 SE1        N/A
* ROSCOE HILL  N/A       54  14  20 S21G33     N/A
$$

REGIONAL REPORTS...DAKOTAS
CITY           SKY/WX    TMP DP  RH WIND       PRES   REMARKS
WILLISTON      CLOUDY    21  16  81 SE10G18   29.88F WCI  10
DICKINSON      CLOUDY    25  19  78 S21       29.84F WCI  10
BEACH          CLOUDY    28  27  96 S20       29.80F WCI  15
CROSBY         LGT SNOW  23  21  92 SE17G22   29.91F VSB 1    WCI   9
BISMARCK       LGT SNOW  12   7  80 SE14      30.09F VSB 1    WCI  -4
GRAND FORKS    CLOUDY     5  -4  66 SE14      30.32F WCI -12
FARGO          PTSUNNY    7  -4  60 S13       30.34F WCI  -9
BUFFALO SD     PTCLDY    30  21  69 S13       29.81F WCI  20
RAPID CITY     PTSUNNY   34  27  76 S8        29.91F WCI  27
$$

REGIONAL REPORTS...WYOMING/IDAHO/WASHINGTON
CITY           SKY/WX    TMP DP  RH WIND       PRES   REMARKS
GILLETTE       PTCLDY    46  30  54 SW21      29.90F
SHERIDAN       PTSUNNY   54  27  35 VRB6      29.87F
CODY           PTCLDY    57  27  32 SW17G32   29.95S
YELLOWSTONE LA PTCLDY    41  27  58 W5G16     30.18F
SALMON         CLOUDY    39  34  82 CALM      30.03F
MULLAN PASS    LGT RAIN  36  34  92 SW12G22   29.89S WCI  28
SAND POINT     CLOUDY    48  46  93 SW3       29.82F
SPOKANE        PTSUNNY   54  43  67 SW21G26   29.83S
$$

REGIONAL REPORTS...ALBERTA
CITY           SKY/WX    TMP DP  RH WIND       PRES   REMARKS
CALGARY        LGT SNOW  23  21  92 NE15      29.74S VSB 3/4  WCI  10
LETHBRIDGE     CLOUDY    28  27  96 NW10      29.73F WCI  19
$$

REGIONAL REPORTS...SASKATCHEWAN
CITY           SKY/WX    TMP DP  RH WIND       PRES   REMARKS
SWIFT CURRENT  LGT SNOW  21  19  92 E20       29.76S VSB 3    WCI   6

$$



USA.gov is the U.S. government's official web portal to all federal, state and local government web resources and services.